TimeCST,TemperatureF,Dew PointF,Humidity,Sea Level PressureIn,VisibilityMPH,Wind Direction,Wind SpeedMPH,Gust SpeedMPH,PrecipitationIn,Events,Conditions,WindDirDegrees,DateUTC
12:15 AM,35.6,28.4,75,30.04,10.0,ESE,8.1,-,N/A,,Overcast,110,2012-12-09 06:15:00
12:35 AM,35.6,28.4,75,30.04,10.0,ESE,8.1,-,N/A,,Overcast,110,2012-12-09 06:35:00
1:15 AM,35.6,28.4,75,30.01,10.0,ESE,10.4,-,N/A,,Overcast,110,2012-12-09 07:15:00
1:35 AM,35.6,28.4,75,30.03,10.0,ESE,4.6,-,N/A,,Overcast,120,2012-12-09 07:35:00
1:55 AM,35.6,28.4,75,30.02,10.0,ESE,5.8,-,N/A,,Overcast,110,2012-12-09 07:55:00
2:15 AM,35.6,28.4,75,30.01,10.0,East,8.1,-,N/A,,Overcast,100,2012-12-09 08:15:00
2:35 AM,35.6,28.4,75,29.99,10.0,East,10.4,-,N/A,,Overcast,100,2012-12-09 08:35:00
2:55 AM,35.6,28.4,75,29.99,10.0,East,10.4,-,N/A,,Overcast,100,2012-12-09 08:55:00
3:15 AM,35.6,28.4,75,29.98,10.0,East,10.4,18.4,N/A,,Overcast,90,2012-12-09 09:15:00
3:35 AM,35.6,28.4,75,29.98,10.0,East,9.2,-,N/A,,Overcast,90,2012-12-09 09:35:00
3:55 AM,35.6,28.4,75,29.99,10.0,East,6.9,-,N/A,,Overcast,100,2012-12-09 09:55:00
4:15 AM,35.6,28.4,75,29.99,10.0,East,8.1,-,N/A,,Overcast,90,2012-12-09 10:15:00
4:35 AM,35.6,28.4,75,29.99,10.0,East,6.9,-,N/A,,Overcast,90,2012-12-09 10:35:00
4:55 AM,35.6,30.2,81,29.99,7.0,East,5.8,-,N/A,Snow,Light Snow,100,2012-12-09 10:55:00
5:15 AM,33.8,30.2,87,29.98,2.5,East,4.6,-,N/A,Snow,Light Snow,90,2012-12-09 11:15:00
5:35 AM,32.0,32.0,100,29.98,3.0,East,3.5,-,N/A,Snow,Light Snow,100,2012-12-09 11:35:00
5:55 AM,32.0,32.0,100,29.97,2.5,East,3.5,-,N/A,Snow,Light Snow,100,2012-12-09 11:55:00
6:15 AM,32.0,32.0,100,29.98,3.0,East,3.5,-,N/A,,Overcast,100,2012-12-09 12:15:00
6:35 AM,32.0,32.0,100,29.98,2.5,East,3.5,-,N/A,,Overcast,90,2012-12-09 12:35:00
6:55 AM,32.0,32.0,100,29.97,2.0,Calm,Calm,-,N/A,Snow,Light Snow,0,2012-12-09 12:55:00
7:15 AM,32.0,32.0,100,29.97,1.8,Calm,Calm,-,N/A,Snow,Light Snow,0,2012-12-09 13:15:00
7:35 AM,32.0,32.0,100,29.96,1.8,Calm,Calm,-,N/A,Snow,Light Snow,0,2012-12-09 13:35:00
7:55 AM,32.0,32.0,100,29.95,2.0,East,3.5,-,N/A,Snow,Light Snow,90,2012-12-09 13:55:00
8:15 AM,32.0,32.0,100,29.93,1.5,East,4.6,-,N/A,Snow,Light Snow,90,2012-12-09 14:15:00
8:35 AM,33.8,32.0,93,29.93,2.5,East,4.6,-,N/A,Snow,Light Snow,90,2012-12-09 14:35:00
8:55 AM,33.8,32.0,93,29.92,3.0,East,3.5,-,N/A,,Overcast,90,2012-12-09 14:55:00
9:15 AM,33.8,32.0,93,29.92,2.0,East,3.5,-,N/A,Snow,Light Snow,80,2012-12-09 15:15:00
9:35 AM,32.0,32.0,100,29.92,1.5,East,3.5,-,N/A,Snow,Light Snow,90,2012-12-09 15:35:00
9:55 AM,32.0,32.0,100,29.92,1.0,East,3.5,-,N/A,Snow,Light Snow,80,2012-12-09 15:55:00
10:15 AM,32.0,32.0,100,29.91,0.5,Calm,Calm,-,N/A,Snow,Snow,0,2012-12-09 16:15:00
10:35 AM,32.0,32.0,100,29.90,0.5,Calm,Calm,-,N/A,Snow,Snow,0,2012-12-09 16:35:00
10:55 AM,32.0,32.0,100,29.90,0.5,Calm,Calm,-,N/A,Snow,Snow,0,2012-12-09 16:55:00
11:15 AM,32.0,32.0,100,29.88,0.5,Calm,Calm,-,N/A,Snow,Snow,0,2012-12-09 17:15:00
11:35 AM,32.0,32.0,100,29.86,1.0,Calm,Calm,-,N/A,Snow,Light Snow,0,2012-12-09 17:35:00
11:55 AM,33.8,32.0,93,29.84,1.8,East,5.8,-,N/A,Snow,Light Snow,90,2012-12-09 17:55:00
12:15 PM,33.8,32.0,93,29.83,3.0,East,6.9,-,0.04,Snow,Light Snow,90,2012-12-09 18:15:00
12:35 PM,33.8,32.0,93,29.82,4.0,East,5.8,-,0.07,Snow,Light Snow,90,2012-12-09 18:35:00
12:55 PM,33.8,32.0,93,29.81,7.0,East,4.6,-,0.10,Rain,Light Rain,100,2012-12-09 18:55:00
1:15 PM,33.8,32.0,93,29.80,10.0,East,3.5,-,0.02,Rain,Light Rain,90,2012-12-09 19:15:00
1:35 PM,33.8,32.0,93,29.79,7.0,East,3.5,-,0.04,Rain,Light Rain,100,2012-12-09 19:35:00
1:55 PM,33.8,32.0,93,29.79,4.0,ESE,3.5,-,0.06,Rain,Light Rain,110,2012-12-09 19:55:00
2:15 PM,33.8,32.0,93,29.78,5.0,East,4.6,-,0.02,Rain,Light Rain,100,2012-12-09 20:15:00
2:35 PM,33.8,32.0,93,29.78,10.0,ESE,4.6,-,0.04,Rain,Light Rain,110,2012-12-09 20:35:00
2:55 PM,33.8,32.0,93,29.78,10.0,Calm,Calm,-,0.06,,Light Drizzle,0,2012-12-09 20:55:00
3:15 PM,33.8,32.0,93,29.78,10.0,Calm,Calm,-,0.01,,Light Drizzle,0,2012-12-09 21:15:00
3:35 PM,33.8,32.0,93,29.79,7.0,Calm,Calm,-,0.02,,Overcast,0,2012-12-09 21:35:00
3:55 PM,33.8,32.0,93,29.79,7.0,Calm,Calm,-,0.02,,Overcast,0,2012-12-09 21:55:00
4:15 PM,32.0,32.0,100,29.79,5.0,Calm,Calm,-,0.01,,Overcast,0,2012-12-09 22:15:00
4:35 PM,32.0,32.0,100,29.79,2.0,Calm,Calm,-,0.01,,Overcast,0,2012-12-09 22:35:00
4:55 PM,32.0,32.0,100,29.78,2.5,Calm,Calm,-,0.01,,Scattered Clouds,0,2012-12-09 22:55:00
5:15 PM,32.0,32.0,100,29.76,3.0,Calm,Calm,-,0.01,,Clear,0,2012-12-09 23:15:00
5:35 PM,32.0,32.0,100,29.77,2.5,Calm,Calm,-,0.01,Snow,Light Snow,0,2012-12-09 23:35:00
5:55 PM,32.0,32.0,100,29.77,2.5,Calm,Calm,-,0.01,Snow,Light Snow,0,2012-12-09 23:55:00
6:15 PM,32.0,32.0,100,29.77,3.0,Calm,Calm,-,N/A,,Overcast,0,2012-12-10 00:15:00
6:35 PM,32.0,32.0,100,29.77,2.5,Calm,Calm,-,N/A,,Overcast,0,2012-12-10 00:35:00
6:55 PM,32.0,32.0,100,29.77,2.5,Calm,Calm,-,N/A,,Overcast,0,2012-12-10 00:55:00
7:15 PM,32.0,32.0,100,29.76,2.0,Calm,Calm,-,0.01,,Overcast,0,2012-12-10 01:15:00
7:35 PM,32.0,32.0,100,29.75,2.0,Calm,Calm,-,0.01,,Overcast,0,2012-12-10 01:35:00
7:55 PM,32.0,32.0,100,29.75,1.2,Calm,Calm,-,0.01,,Overcast,0,2012-12-10 01:55:00
8:15 PM,32.0,32.0,100,29.76,1.5,WSW,3.5,-,N/A,,Overcast,240,2012-12-10 02:15:00
8:35 PM,32.0,32.0,100,29.76,10.0,West,13.8,18.4,N/A,,Overcast,270,2012-12-10 02:35:00
8:55 PM,32.0,30.2,93,29.76,10.0,West,6.9,-,N/A,,Overcast,260,2012-12-10 02:55:00
9:15 PM,32.0,30.2,93,29.75,10.0,West,10.4,-,0.01,,Overcast,260,2012-12-10 03:15:00
9:35 PM,32.0,28.4,87,29.76,10.0,West,8.1,16.1,0.01,,Overcast,260,2012-12-10 03:35:00
9:55 PM,30.2,26.6,86,29.76,10.0,WSW,9.2,-,0.01,,Overcast,240,2012-12-10 03:55:00
10:15 PM,30.2,26.6,86,29.77,10.0,WSW,10.4,17.3,N/A,,Overcast,250,2012-12-10 04:15:00
10:35 PM,28.4,26.6,93,29.78,5.0,West,6.9,16.1,N/A,,Overcast,270,2012-12-10 04:35:00
10:55 PM,28.4,26.6,93,29.78,7.0,West,4.6,-,N/A,,Overcast,270,2012-12-10 04:55:00
11:15 PM,28.4,26.6,93,29.77,7.0,SW,5.8,-,N/A,,Overcast,230,2012-12-10 05:15:00
11:35 PM,28.4,26.6,93,29.78,10.0,West,3.5,-,N/A,,Overcast,270,2012-12-10 05:35:00
11:55 PM,28.4,26.6,93,29.77,10.0,West,4.6,-,N/A,,Overcast,270,2012-12-10 05:55:00